Location: Aalen
(48.8330°N, 10.1000°E)
Time: 20:26:50
(UTC+02:00)

S-56A Canister/Altair - Pass Details

Date: 04 August 2021
Orbit: 632 x 2500 km, 38.9° (Epoch: 19 September)

Event Time Altitude Azimuth Distance (km) Brightness Sun altitude
Rises 15:27:08 0° 232° (SW) 5,189 12.4 49.8°
Reaches altitude 10° 15:30:23 10° 226° (SW) 4,415 12.3 49.4°
Maximum altitude 15:42:18 48° 158° (SSE) 2,925 11.2 47.9°
Drops below altitude 10° 15:56:19 10° 92° (E) 5,150 11.5 46.0°
Sets 16:00:25 0° 87° (E) 6,095 11.7 45.4°
